This demonstration page uses our WeatherBlox Daily Observations layout. Learn more.

Left ArrowRight Arrow

53.62937, 11.41316

Hourly Observations for November 16, 2021

Temp ( °F °C ) Dew Point ( °F °C ) Humidity (%) Winds ( mph kmh ) Pressure ( in mb ) Visibility ( mi km ) Precip ( " mm )
12:20 am 00:20 Cloudy 43 6 37 3 81 81 E 5 7 30.33 1027 30 48 N/A
12:50 am 00:50 Cloudy 41 5 36 2 81 81 E 6 9 30.33 1027 30 48 N/A
1:20 am 01:20 Cloudy 41 5 36 2 81 81 ESE 6 9 30.33 1027 30 48 N/A
1:50 am 01:50 Cloudy 41 5 36 2 81 81 ESE 6 9 30.33 1027 30 48 N/A
2:20 am 02:20 Cloudy 41 5 36 2 81 81 ESE 5 7 30.33 1027 30 48 N/A
2:50 am 02:50 Cloudy 41 5 36 2 81 81 E 7 11 30.30 1026 30 48 N/A
3:20 am 03:20 Cloudy 41 5 36 2 81 81 E 3 6 30.30 1026 30 48 N/A
3:50 am 03:50 Cloudy 41 5 36 2 81 81 ESE 5 7 30.30 1026 30 48 N/A
4:20 am 04:20 Cloudy 41 5 36 2 81 81 ESE 6 9 30.27 1025 30 48 N/A
4:50 am 04:50 Cloudy 41 5 36 2 81 81 ESE 6 9 30.27 1025 30 48 N/A
5:20 am 05:20 Cloudy 41 5 36 2 81 81 VRB 5 7 30.27 1025 30 48 N/A
5:50 am 05:50 Cloudy 41 5 36 2 81 81 SE 5 7 30.27 1025 30 48 N/A
6:20 am 06:20 Cloudy 41 5 36 2 81 81 E 3 6 30.27 1025 30 48 N/A
6:50 am 06:50 Cloudy 41 5 36 2 81 81 E 3 6 30.27 1025 30 48 N/A
7:20 am 07:20 Cloudy 41 5 34 1 76 76 ESE 5 7 30.27 1025 30 48 N/A
7:50 am 07:50 Cloudy 41 5 34 1 76 76 VRB 2 4 30.27 1025 30 48 N/A
8:20 am 08:20 Cloudy 41 5 34 1 76 76 E 3 6 30.27 1025 30 48 N/A
8:50 am 08:50 Cloudy 41 5 36 2 81 81 E 3 6 30.27 1025 30 48 N/A
9:20 am 09:20 Cloudy 41 5 36 2 81 81 ESE 5 7 30.27 1025 30 48 N/A
9:50 am 09:50 Cloudy 41 5 36 2 81 81 E 5 7 30.27 1025 30 48 N/A
10:20 am 10:20 Cloudy 41 5 36 2 81 81 VRB 2 4 30.27 1025 30 48 N/A
10:50 am 10:50 Cloudy 41 5 36 2 81 81 ESE 3 6 30.24 1024 30 48 N/A
11:20 am 11:20 Cloudy 41 5 36 2 81 81 SE 6 9 30.24 1024 30 48 N/A
11:50 am 11:50 Cloudy 41 5 37 3 87 87 ESE 5 7 30.24 1024 30 48 N/A
12:20 pm 12:20 Cloudy 41 5 37 3 87 87 ESE 6 9 30.21 1023 30 48 N/A
12:50 pm 12:50 Cloudy 41 5 37 3 87 87 SE 3 6 30.21 1023 5 8 N/A
1:20 pm 13:20 Cloudy 41 5 37 3 87 87 SE 3 6 30.21 1023 5 8 N/A
1:50 pm 13:50 Cloudy 41 5 37 3 87 87 VRB 1 2 30.18 1022 5 8 N/A
2:20 pm 14:20 Cloudy 41 5 37 3 87 87 S 3 6 30.18 1022 5 8 N/A
2:50 pm 14:50 Cloudy 41 5 37 3 87 87 VRB 1 2 30.18 1022 6 9 N/A
3:20 pm 15:20 Cloudy 41 5 37 3 87 87 VRB 1 2 30.18 1022 6 9 N/A
3:50 pm 15:50 Cloudy 41 5 37 3 87 87 VRB 2 4 30.15 1021 6 9 N/A
4:20 pm 16:20 Cloudy 41 5 37 3 87 87 VRB 2 4 30.15 1021 6 9 N/A
4:50 pm 16:50 Cloudy 41 5 37 3 87 87 SSE 5 7 30.15 1021 6 9 N/A
5:20 pm 17:20 Cloudy 41 5 37 3 87 87 S 3 6 30.15 1021 30 48 N/A
5:50 pm 17:50 Cloudy 41 5 37 3 87 87 S 5 7 30.15 1021 30 48 N/A
6:20 pm 18:20 Cloudy 41 5 37 3 87 87 S 3 6 30.15 1021 30 48 N/A
6:50 pm 18:50 Cloudy 41 5 37 3 87 87 VRB 2 4 30.15 1021 30 48 N/A
7:20 pm 19:20 Mostly Cloudy 41 5 37 3 87 87 VRB 2 4 30.12 1020 4 7 N/A
7:50 pm 19:50 Mostly Cloudy with Drizzle 41 5 39 4 93 93 VRB 2 4 30.12 1020 4 6 N/A
8:20 pm 20:20 Mostly Cloudy 41 5 39 4 93 93 VRB 1 2 30.12 1020 4 7 N/A
8:50 pm 20:50 Partly Cloudy with Light Rain 41 5 39 4 93 93 VRB 1 2 30.12 1020 3 5 N/A
9:20 pm 21:20 Partly Cloudy 39 4 39 4 100 100 VRB 2 4 30.12 1020 3 5 N/A
9:50 pm 21:50 Mostly Cloudy 39 4 39 4 100 100 Calm 30.12 1020 3 5 N/A
10:20 pm 22:20 Mostly Cloudy 39 4 39 4 100 100 VRB 1 2 30.09 1019 3 5 N/A
10:50 pm 22:50 Partly Cloudy 39 4 39 4 100 100 WSW 3 6 30.09 1019 4 6 N/A
11:20 pm 23:20 Mostly Cloudy 39 4 39 4 100 100 WSW 3 6 30.09 1019 4 6 N/A
11:50 pm 23:50 Mostly Cloudy 39 4 39 4 100 100 VRB 2 4 30.09 1019 3 5 N/A

Powered by AerisWeather